Home > Time Zones > World Clock > Weather > Spain > Jaén > Past weeks

Flag for Spain Weather past 2 weeks in Jaén, Spain

Now
82 °F

Passing clouds.


Feels Like: 81 °F
Forecast: 55 / 83 °F
Wind: 6 mph from South

Location: Granada / Aeropuerto


UV Index: 5 (Moderate)

Visibility: N/A


Pressure: 30.04 "Hg

Humidity: 26%

Dew point: 45 °F

Location of JaénLocation

Historic Weather in Jaén

°F

Jaén temperature yesterday

Maximum temperature yesterday: 81 °F (at 4:30 PM)
Minimum temperature yesterday: 46 °F (at 6:00 AM)
Average temperature yesterday: 67 °F

Past Weeks' High & Low Weather Summary

 TemperatureHumidityPressure
High88 °F (Apr 8, 5:00 PM)100% (Apr 6, 6:00 AM)30.24 "Hg (Apr 6, 6:00 AM)
Low43 °F (Apr 3, 8:00 AM)13% (Apr 10, 10:30 PM)29.59 "Hg (Apr 2, 4:00 PM)
Average64 °F58%30.02 "Hg
* Reported Apr 1 3:00 PM — Apr 16 3:00 PM, Jaén, Weather by CustomWeather, © 2014

Note: Actual official high and low records may vary slightly from our data, if they occured in-between our weather recording intervals... More about our weather records

Advertising

Historic Weather Conditions — Data for Previous 24 hours

 ConditionsComfort  
Time TempWeatherWind HumidityBarometerVisibility
3:00 PM
Apr 16
82 °FPassing clouds.7 mph28%30.04 "HgN/A
2:30 PM81 °FPassing clouds.5 mph32%30.04 "HgN/A
2:00 PM79 °FPassing clouds.1 mph34%30.07 "HgN/A
1:30 PM77 °FPassing clouds.2 mph39%30.07 "HgN/A
1:00 PM77 °FPassing clouds.1 mph44%30.07 "HgN/A
12:30 PM73 °FPassing clouds.No wind50%30.09 "HgN/A
12:00 PM72 °FPassing clouds.No wind47%30.09 "HgN/A
11:30 AM68 °FPassing clouds.No wind53%30.09 "HgN/A
11:00 AM66 °FPassing clouds.No wind60%30.09 "HgN/A
10:30 AM63 °FSunny.No wind68%30.09 "Hg10 mi
10:00 AM61 °FSunny.No wind68%30.09 "Hg10 mi
9:30 AM57 °FSunny.No wind77%30.09 "Hg10 mi
9:00 AM55 °FSunny.No wind82%30.09 "Hg10 mi
8:30 AM50 °FClear.No wind88%30.09 "Hg10 mi
8:00 AM48 °FPassing clouds.No wind87%30.09 "HgN/A
7:30 AM48 °FPassing clouds.No wind94%30.07 "HgN/A
7:00 AM46 °FPassing clouds.No wind93%30.07 "HgN/A
6:30 AM50 °FClear.No wind88%30.07 "Hg10 mi
6:00 AM50 °FClear.No wind88%30.07 "Hg10 mi
11:00 PM
Apr 15
64 °FPassing clouds.6 mph56%30.04 "HgN/A
10:30 PM64 °FPassing clouds.5 mph56%30.04 "HgN/A
10:00 PM66 °FPassing clouds.3 mph52%30.04 "HgN/A
9:30 PM68 °FScattered clouds.2 mph49%30.01 "HgN/A
9:00 PM70 °FScattered clouds.7 mph46%30.01 "HgN/A
8:30 PM73 °FScattered clouds.8 mph41%29.98 "HgN/A
8:00 PM73 °FScattered clouds.12 mph41%29.98 "HgN/A
7:30 PM75 °FScattered clouds.10 mph41%29.98 "HgN/A
7:00 PM77 °FScattered clouds.13 mph36%29.98 "HgN/A
6:30 PM79 °FScattered clouds.9 mph32%29.98 "HgN/A
6:00 PM79 °FScattered clouds.6 mph28%29.98 "HgN/A
5:30 PM81 °FPassing clouds.6 mph26%29.98 "HgN/A
5:00 PM81 °FPassing clouds.1 mph28%29.98 "HgN/A
Weather by CustomWeather, © 2014

See weather overview